User: anonymous   Login
Location: Melbourne
(37.8170°S, 144.9670°E)
Time: 21:42:30
(UTC+11:00)
Language:

Cosmos 962 Rocket - Orbit

View from above orbital plane
View from above orbital plane
View from above satellite
View from above satellite

Ground track
Ground track

The orbit data is extracted from the following two-line orbital elements,

1 10461U 77107B   17087.96225024 -.00000019 +00000-0 -34310-4 0  9994
2 10461 082.9460 072.9624 0033772 015.1882 036.2397 13.76771041979451
Epoch (UTC): 28 March 2017 23:05:38
Eccentricity: 0.0033772
inclination: 82.9460°
perigee height: 950 km
apogee height: 1000 km
right ascension of ascending node: 72.9624°
argument of perigee: 15.1882°
revolutions per day: 13.76771041
mean anomaly at epoch: 36.2397°
orbit number at epoch: 97945

The dashed part of the orbit path shows where the satellite is in the earth's shadow,  

DLR